Wind_Speed
4 7 10 12 15 18 20 22 25 28 30 31 32 33 34 34 34 34 34 33 33 33 34 35 34 34 34 33 33 33 33 32 32 32 31 30 30 31 30 29 28 26 26
6 3 1 2 4 7 10 13 15 17 19 21 23 24 25 26 27 28 29 30 31 32 32 34 34 33 33 33 33 33 33 33 33 32 31 29 29 28 28 27 27 26 26
13 11 9 7 5 3 3 4 6 8 10 12 13 15 17 18 20 21 23 24 25 27 30 31 32 32 32 32 33 33 33 32 32 31 29 28 26 26 25 25 25 25 25
17 15 14 12 10 9 7 5 5 5 6 7 9 10 11 13 14 16 17 18 20 23 25 27 28 30 30 30 30 29 29 29 28 27 26 24 24 23 23 24 24 24 25
18 17 16 14 12 11 9 8 7 7 8 8 9 10 11 13 14 15 15 16 17 18 19 20 21 22 22 23 24 24 24 24 24 23 22 21 21 21 22 22 23 23 23
19 18 17 16 14 12 11 10 10 10 11 11 12 13 14 14 15 16 16 16 16 16 16 15 16 16 16 16 17 18 18 19 19 18 18 19 19 19 20 21 21 22 22
20 20 19 17 16 15 14 13 12 12 12 12 12 12 13 13 14 16 17 17 18 17 16 15 14 14 13 13 13 13 14 14 15 15 16 16 17 18 19 20 20 21 20
21 21 21 20 19 18 17 16 15 14 14 13 13 13 13 13 13 13 14 16 17 18 18 17 17 16 15 15 13 12 13 13 13 13 14 15 16 16 17 18 19 19 19
21 22 23 23 22 21 20 18 18 17 17 16 16 15 14 13 12 12 12 12 14 17 18 18 18 18 18 17 17 16 15 13 13 13 14 15 15 15 16 17 17 18 18
21 22 23 24 24 23 22 21 21 21 20 20 19 18 16 15 13 11 10 10 12 14 16 17 18 19 19 19 18 16 15 14 13 12 12 12 13 13 14 14 15 15 15
20 22 23 24 24 24 23 23 23 23 23 23 22 21 19 17 14 12 10 9 10 11 13 15 17 18 18 18 17 16 14 13 12 11 11 11 11 11 11 11 11 11 11
20 22 23 24 24 24 24 24 24 24 25 25 25 24 22 20 17 14 11 8 7 8 10 13 14 15 16 16 16 14 13 12 11 10 9 8 8 8 7 7 7 7 7
20 21 22 23 24 24 24 24 24 25 26 27 27 27 26 24 21 17 13 9 5 3 6 9 12 14 15 16 15 14 13 11 10 9 7 6 6 6 5 4 3 3 3
19 20 21 22 23 23 23 24 24 25 26 27 28 28 28 27 25 23 19 14 8 4 3 6 9 12 14 14 13 12 13 11 10 9 7 6 5 5 4 4 4 4 4
19 20 20 21 22 23 23 24 24 25 26 27 27 28 29 29 28 27 24 21 17 13 11 11 12 13 14 14 13 12 12 11 10 8 7 7 6 6 6 6 6 6 6
20 20 20 21 21 22 23 24 25 25 26 26 27 28 28 29 29 29 27 26 23 20 18 17 16 15 15 14 13 12 12 11 10 9 8 8 8 9 9 9 9 9 9
19 20 21 21 21 22 23 24 25 25 26 26 26 26 27 27 28 28 28 27 26 24 22 20 18 17 16 15 14 13 13 12 11 10 11 11 11 11 11 11 11 10 9
18 19 20 21 21 22 22 23 24 25 25 26 25 25 25 26 26 26 27 27 26 26 24 22 21 19 18 17 16 16 15 14 14 14 14 13 13 13 12 12 11 9 8
15 17 19 20 20 21 22 22 23 24 24 25 25 24 24 24 24 24 24 25 26 26 25 24 23 22 21 20 19 19 18 17 16 16 15 14 14 13 12 10 9 8 7
13 14 16 18 19 20 21 22 22 23 23 23 23 23 23 23 22 22 22 22 22 23 24 24 23 22 22 21 20 19 19 18 17 16 15 14 12 11 10 9 8 7 6
10 12 14 15 17 18 19 20 21 21 22 22 22 22 21 22 22 21 21 20 19 19 19 19 20 19 19 19 18 18 17 16 15 14 13 11 10 9 8 7 6 6 5
8 10 11 13 14 15 17 18 19 20 20 20 20 20 20 20 20 21 21 20 19 18 17 16 16 16 15 15 14 14 13 13 12 11 10 9 9 8 7 6 5 5 5
9 9 9 10 11 12 13 15 16 17 17 18 18 18 17 17 18 19 20 20 20 19 18 16 15 14 13 12 12 11 11 10 10 9 9 8 7 7 6 5 4 5 5
10 10 10 10 10 10 11 11 12 13 14 15 15 15 15 14 14 15 16 17 18 18 18 18 17 16 14 13 12 11 10 10 9 9 8 7 6 5 4 3 4 5 6
11 11 11 11 10 10 10 10 10 10 11 11 12 12 12 11 11 11 11 12 13 14 15 15 16 15 15 14 13 12 11 10 9 8 6 5 4 4 3 4 6 7 9
13 13 13 12 12 11 10 10 9 9 9 9 9 9 9 9 8 7 7 7 7 8 9 10 11 11 11 11 11 10 9 8 7 7 6 5 5 6 6 8 9 10 12
Wind_Direction
275 262 260 260 261 262 264 265 266 266 268 270 272 273 273 272 270 268 266 264 261 259 257 252 253 252 254 255 256 257 258 260 262 263 260 256 255 257 258 261 263 263 262
61 55 48 271 266 268 270 271 272 273 275 275 274 274 273 271 269 266 264 261 260 258 256 253 253 253 256 256 257 257 258 261 262 262 260 255 254 255 255 257 259 260 261
67 65 65 64 57 35 348 314 298 291 288 286 282 278 275 272 269 267 263 260 258 255 252 251 251 251 252 253 253 255 258 259 259 258 256 253 252 251 252 254 256 258 259
62 63 62 60 56 51 39 22 359 337 319 306 299 291 284 278 273 268 263 258 256 252 249 248 247 246 246 247 249 252 253 254 253 251 250 248 247 248 251 253 256 257 258
55 53 50 46 41 34 23 10 355 340 326 314 305 299 293 286 279 273 266 262 258 254 250 244 239 238 239 241 244 246 247 246 245 244 243 244 244 246 250 253 255 257 258
48 45 40 36 30 22 11 359 348 337 325 314 306 301 297 291 283 276 271 266 261 256 250 245 240 236 233 232 234 237 240 242 239 239 241 242 243 246 249 253 255 256 258
42 38 34 30 25 19 12 4 357 350 342 332 321 311 304 299 291 280 270 265 259 255 251 247 244 242 237 236 234 236 238 238 238 240 240 241 243 245 249 253 255 256 258
37 35 32 30 26 23 19 16 12 5 360 353 344 332 319 310 303 293 278 266 256 248 244 241 237 236 235 235 235 238 239 237 237 239 243 244 243 246 250 252 254 255 257
35 34 32 31 28 26 24 22 19 15 9 3 355 347 337 325 314 306 293 274 258 246 240 236 233 230 230 232 234 238 242 240 235 240 244 244 244 248 252 253 254 255 257
34 33 31 29 29 29 29 28 26 22 17 12 6 360 351 341 330 317 304 283 264 250 239 235 232 228 227 229 232 235 238 239 233 234 239 241 244 246 250 251 253 255 257
34 32 30 30 31 31 31 31 29 26 23 19 15 10 4 356 347 334 319 295 272 254 241 232 229 226 223 222 224 228 231 230 225 226 232 237 239 241 246 250 252 253 255
32 31 30 30 30 31 31 31 30 28 27 24 21 18 14 8 1 351 338 318 290 261 241 230 222 217 213 210 210 212 214 214 214 216 217 220 227 230 234 241 247 249 252
30 30 30 30 30 30 31 30 29 28 28 27 26 24 22 19 15 10 3 352 329 272 226 213 205 202 199 197 199 199 197 199 199 198 201 206 210 210 211 218 219 214 204
27 28 29 29 29 29 29 29 28 28 28 28 29 29 29 29 29 29 30 33 42 68 126 161 171 175 177 178 182 182 181 183 182 183 187 184 180 179 176 167 156 143 137
26 26 27 28 28 28 28 28 27 27 27 28 30 32 34 36 37 40 44 50 59 73 91 115 131 142 150 157 162 164 166 169 170 168 166 163 157 154 143 133 130 127 121
27 26 28 28 27 27 28 28 28 27 28 29 31 34 37 40 43 46 51 56 63 73 85 98 112 122 130 137 142 148 153 155 153 150 147 145 141 135 129 126 123 118 112
27 26 27 27 27 27 27 27 28 28 29 31 33 36 39 43 47 51 54 58 65 73 82 90 99 109 117 123 127 131 134 137 137 135 135 134 132 129 127 122 117 112 105
27 26 26 26 26 26 27 27 28 29 30 32 34 37 41 46 51 55 58 62 67 73 79 85 92 99 106 111 115 119 122 124 125 126 127 126 124 123 121 117 113 107 100
23 24 24 24 25 26 27 27 28 30 31 33 36 39 43 47 52 57 61 65 69 73 78 82 87 92 98 102 107 111 114 116 118 120 120 120 119 117 116 113 108 101 91
18 20 21 23 24 26 27 27 28 30 32 35 37 40 44 48 52 56 60 66 71 75 78 81 84 89 94 98 102 105 109 111 113 115 115 115 115 114 112 107 100 92 81
6 11 15 17 20 23 25 27 28 30 32 35 38 41 45 49 53 56 60 63 68 74 79 82 85 89 93 97 101 104 106 109 110 112 113 113 112 109 105 98 89 78 63
345 354 2 8 13 17 21 25 27 29 31 34 37 41 45 50 54 57 60 62 65 69 75 80 84 88 91 95 99 102 105 107 108 109 108 107 105 103 98 90 80 69 56
321 330 341 351 359 5 12 18 23 26 29 32 35 39 43 48 53 58 61 64 66 68 71 75 80 85 89 93 96 99 103 106 108 109 108 108 106 103 96 86 73 55 38
305 311 319 328 338 348 356 4 12 18 23 27 31 35 40 44 49 54 58 63 66 68 69 72 75 78 82 86 90 94 97 99 102 104 104 104 101 95 83 65 38 18 5
295 299 305 311 317 324 332 342 352 1 9 16 21 25 30 35 40 46 51 55 60 63 65 68 70 73 76 79 82 85 87 88 88 88 85 79 69 53 30 9 355 348 343
289 290 293 297 302 307 311 316 323 332 342 352 1 7 11 15 19 24 31 38 44 49 53 57 60 64 67 70 72 73 74 73 70 64 54 39 20 5 353 345 341 338 336
Height
5769 5770 5772 5774 5777 5779 5781 5782 5784 5785 5786 5787 5787 5787 5787 5787 5788 5788 5789 5790 5790 5792 5792 5794 5796 5798 5800 5802 5805 5807 5809 5811 5813 5814 5816 5818 5820 5821 5823 5824 5826 5827 5828
5769 5770 5771 5772 5773 5775 5776 5776 5777 5778 5778 5778 5778 5778 5778 5778 5778 5778 5779 5780 5781 5782 5783 5785 5787 5789 5791 5794 5796 5798 5800 5802 5804 5806 5808 5810 5812 5813 5815 5817 5819 5820 5822
5773 5772 5772 5772 5772 5773 5773 5773 5773 5773 5773 5772 5772 5771 5771 5770 5770 5770 5770 5771 5772 5773 5775 5777 5779 5781 5783 5785 5787 5790 5792 5794 5796 5798 5800 5802 5804 5806 5809 5811 5813 5814 5816
5777 5776 5775 5774 5773 5773 5772 5772 5771 5770 5769 5769 5768 5767 5766 5765 5764 5764 5764 5764 5765 5766 5767 5769 5771 5773 5775 5777 5779 5782 5784 5786 5788 5791 5793 5795 5798 5800 5802 5805 5807 5808 5810
5781 5780 5778 5777 5775 5774 5773 5771 5770 5769 5768 5766 5765 5763 5762 5761 5760 5759 5759 5759 5759 5760 5761 5762 5764 5766 5768 5770 5772 5775 5777 5780 5782 5784 5787 5789 5792 5794 5797 5799 5801 5803 5804
5785 5783 5781 5779 5777 5775 5773 5771 5769 5768 5766 5764 5762 5760 5758 5757 5755 5754 5754 5753 5754 5754 5755 5757 5758 5760 5762 5764 5767 5769 5772 5774 5777 5779 5782 5784 5787 5789 5792 5794 5796 5798 5799
5789 5786 5784 5781 5778 5776 5773 5771 5768 5766 5764 5761 5759 5756 5754 5752 5751 5749 5748 5748 5748 5749 5750 5752 5754 5756 5758 5760 5762 5764 5767 5769 5772 5775 5777 5780 5782 5785 5787 5789 5791 5793 5794
5792 5789 5786 5783 5780 5777 5774 5771 5768 5765 5762 5759 5756 5753 5751 5748 5746 5744 5742 5742 5742 5743 5745 5747 5749 5751 5754 5756 5758 5760 5763 5765 5768 5771 5774 5776 5778 5780 5783 5785 5786 5788 5789
5796 5792 5789 5785 5782 5778 5775 5771 5768 5765 5762 5758 5754 5751 5747 5744 5741 5739 5737 5736 5736 5737 5739 5741 5743 5746 5749 5751 5754 5757 5759 5762 5765 5767 5770 5772 5774 5777 5779 5781 5782 5783 5785
5799 5796 5792 5788 5784 5780 5777 5773 5770 5766 5762 5758 5753 5749 5744 5740 5737 5734 5732 5731 5731 5731 5733 5735 5738 5741 5744 5747 5750 5753 5756 5759 5762 5765 5767 5769 5771 5773 5775 5777 5778 5780 5781
5803 5799 5796 5792 5788 5784 5780 5776 5772 5768 5763 5758 5753 5748 5743 5738 5734 5731 5728 5726 5726 5726 5727 5729 5732 5735 5739 5743 5746 5750 5753 5756 5759 5762 5764 5767 5769 5771 5773 5774 5776 5777 5778
5806 5803 5799 5795 5791 5787 5783 5779 5775 5770 5765 5760 5754 5748 5743 5737 5732 5727 5724 5722 5721 5721 5722 5724 5727 5730 5734 5739 5743 5747 5751 5754 5757 5760 5763 5765 5767 5769 5771 5772 5773 5774 5776
5810 5806 5802 5799 5795 5791 5786 5782 5778 5773 5768 5763 5757 5750 5744 5737 5731 5726 5721 5718 5717 5717 5718 5719 5722 5727 5731 5736 5741 5745 5749 5752 5756 5759 5761 5763 5766 5768 5769 5771 5772 5773 5774
5813 5809 5806 5802 5798 5794 5790 5786 5781 5776 5771 5766 5760 5754 5747 5740 5733 5727 5722 5718 5716 5715 5716 5718 5721 5725 5730 5735 5740 5744 5748 5751 5755 5758 5760 5763 5765 5767 5768 5770 5771 5773 5774
5815 5812 5808 5805 5801 5797 5793 5789 5784 5779 5774 5769 5764 5758 5752 5745 5738 5732 5727 5722 5719 5718 5719 5720 5723 5727 5732 5736 5740 5744 5748 5751 5755 5757 5760 5762 5765 5767 5768 5770 5771 5773 5774
5818 5815 5811 5808 5804 5800 5796 5792 5787 5783 5778 5773 5768 5763 5757 5751 5745 5740 5734 5730 5727 5725 5725 5726 5729 5732 5735 5739 5742 5746 5749 5752 5755 5758 5761 5763 5765 5767 5769 5771 5772 5774 5775
5821 5818 5814 5811 5807 5803 5799 5795 5791 5786 5782 5777 5772 5768 5763 5758 5753 5748 5744 5740 5737 5735 5734 5735 5736 5738 5740 5743 5746 5749 5752 5754 5757 5760 5762 5764 5766 5769 5771 5772 5774 5775 5776
5823 5820 5817 5814 5810 5806 5803 5799 5794 5790 5786 5781 5777 5773 5769 5764 5760 5757 5753 5750 5747 5745 5743 5743 5744 5745 5746 5748 5750 5752 5755 5757 5760 5762 5764 5767 5769 5771 5773 5774 5776 5777 5778
5825 5823 5820 5816 5813 5810 5806 5802 5798 5794 5790 5786 5782 5778 5775 5771 5767 5764 5762 5759 5756 5754 5753 5752 5752 5752 5753 5754 5756 5758 5760 5762 5764 5766 5768 5770 5772 5774 5775 5777 5778 5778 5779
5827 5824 5822 5819 5816 5812 5809 5806 5802 5798 5794 5791 5787 5784 5780 5777 5774 5771 5769 5766 5765 5763 5762 5761 5760 5760 5761 5762 5763 5764 5765 5767 5769 5770 5772 5774 5775 5776 5778 5779 5779 5780 5780
5827 5825 5823 5820 5818 5815 5812 5809 5806 5802 5799 5795 5792 5789 5786 5783 5780 5777 5775 5773 5771 5770 5769 5768 5768 5768 5768 5769 5769 5770 5771 5772 5773 5775 5776 5777 5778 5779 5780 5780 5780 5781 5780
5827 5826 5824 5822 5819 5817 5814 5811 5809 5806 5803 5800 5797 5794 5791 5789 5786 5783 5781 5779 5777 5776 5775 5774 5774 5774 5774 5774 5775 5775 5776 5777 5777 5778 5779 5780 5780 5781 5781 5781 5781 5781 5781
5827 5825 5824 5822 5820 5818 5816 5813 5811 5808 5806 5803 5801 5798 5796 5794 5792 5789 5787 5785 5783 5782 5780 5779 5779 5779 5778 5778 5779 5779 5779 5780 5780 5781 5781 5782 5782 5782 5783 5783 5782 5782 5781
5825 5824 5822 5821 5820 5818 5817 5815 5813 5810 5808 5806 5804 5802 5800 5798 5797 5795 5793 5791 5789 5788 5786 5785 5784 5783 5783 5782 5782 5782 5783 5783 5783 5783 5783 5784 5784 5784 5784 5784 5783 5782 5781
5822 5821 5820 5819 5818 5817 5816 5815 5813 5811 5810 5808 5806 5804 5803 5801 5800 5799 5797 5796 5794 5793 5791 5790 5789 5788 5787 5787 5786 5786 5786 5786 5786 5786 5786 5786 5785 5785 5784 5784 5783 5782 5780
5819 5818 5817 5816 5816 5815 5814 5813 5812 5811 5810 5808 5807 5805 5804 5802 5801 5800 5799 5798 5797 5796 5795 5794 5793 5792 5791 5790 5789 5789 5788 5788 5788 5787 5787 5786 5786 5785 5784 5783 5782 5780 5778